Погода в Гимарайнше

Португалия     41°26′34″N   8°17′49″W
темп.,
°C
ветер,
м/с
пор.,
м/с
влажн.,
%
обл.,
%
осадки,
мм/ч
давл.,
гПа
погр.,
м
16 апреля, пт
пт1601:00+14в116861 0.0 101526
04:00+12в23641 0.0 101556
07:00+8в34561 0.0 101774
10:00+14в24330 0.0 1017430
13:00+19вюв223327 0.0 10161086
16:00+21ююв1234100 0.0 10152063
19:00+18зсз355614 0.0 1015223
22:00+12в21745 0.0 101814
17 апреля, сб
сб1701:00+10в3364100 0.0 101855
04:00+7в36632 0.0 1020141
07:00+5в35585 0.0 1021122
10:00+12в353323 0.0 1021466
13:00+18вюв21324 0.0 10201114
16:00+20з22311 0.0 10181862
19:00+16з235423 0.0 1019229
22:00+10в11665 0.0 102110
18 апреля, вс
вс1801:00+9в227199 0.0 102022
04:00+8в2272100 0.0 102024
07:00+9в2264100 0.0 102042
10:00+14вюв2348100 0.0 1020350
13:00+19ю223692 0.0 10201332
16:00+20з4335100 0.0 10181696
19:00+16з245592 0.0 1019332
22:00+11ююз0172100 0.0 102134
19 апреля, пн
пн1901:00+11вюв1170100 0.0 101942
04:00+11з1172100 0.0 101952
07:00+11зюз1279100 0.1 1018117
10:00+10юв1193100 3.6 1019169
13:00+13зюз1275100 3.7 1018701
16:00+16з346686 0.4 10161260
19:00+13з358518 1.7 1016597
22:00+10ю119730 0.2 101814
20 апреля, вт
вт2001:00+10юв009687 0.2 101720
04:00+10юз009597 0.0 101731
07:00+10ююз019684 0.0 101653
10:00+13з1285100 0.1 1017564
13:00+17з2361100 0.5 10161266
16:00+17з456597 1.0 10151280
19:00+15зсз366636 1.2 1014574
22:00+10св11902 0.0 101616